contact:dominique.lefevre@mio.osupytheas.fr, maurice.libes@osupytheas.fr, didier.mallarino@osupytheas.fr
Project:EMSO http://www.emso-fr.org/EMSO-France
Depth: 2436.0 m
Title:EMSO Ligure Ouest : Data MII capteur MICROCAT
DateTime_Computer,Latitude,Longitude,Temperature,Conductivity,Pressure,DateTime_Instrument
DateTime_Computer,Latitude,Longitude,degC,S m-1,dbar,DateTime_Instrument
2020-07-13T00:01:35Z,42.805,6.029,13.2971,4.59976,2470.147,2020-7-13T02:02:21Z
2020-07-13T00:04:38Z,42.805,6.029,13.2973,4.59976,2470.133,2020-7-13T02:05:25Z
2020-07-13T00:07:41Z,42.805,6.029,13.2976,4.59976,2470.156,2020-7-13T02:08:28Z
2020-07-13T00:10:44Z,42.805,6.029,13.2976,4.59976,2470.194,2020-7-13T02:11:31Z
2020-07-13T00:13:48Z,42.805,6.029,13.2973,4.59976,2470.18,2020-7-13T02:14:34Z
2020-07-13T00:16:51Z,42.805,6.029,13.2973,4.59976,2470.18,2020-7-13T02:17:37Z
2020-07-13T00:19:54Z,42.805,6.029,13.2975,4.59976,2470.194,2020-7-13T02:20:41Z
2020-07-13T00:22:57Z,42.805,6.029,13.2975,4.59976,2470.18,2020-7-13T02:23:44Z
2020-07-13T00:26:01Z,42.805,6.029,13.2977,4.59976,2470.18,2020-7-13T02:26:47Z
2020-07-13T00:29:04Z,42.805,6.029,13.2976,4.59975,2470.18,2020-7-13T02:29:50Z
2020-07-13T00:32:07Z,42.805,6.029,13.2971,4.59976,2470.18,2020-7-13T02:32:54Z
2020-07-13T00:35:10Z,42.805,6.029,13.2974,4.59977,2470.171,2020-7-13T02:35:57Z
2020-07-13T00:38:13Z,42.805,6.029,13.2975,4.59977,2470.171,2020-7-13T02:39:00Z
2020-07-13T00:41:17Z,42.805,6.029,13.2979,4.59976,2470.171,2020-7-13T02:42:03Z
2020-07-13T00:44:20Z,42.805,6.029,13.2974,4.59976,2470.194,2020-7-13T02:45:06Z
2020-07-13T00:47:23Z,42.805,6.029,13.2974,4.59978,2470.156,2020-7-13T02:48:10Z
2020-07-13T00:50:26Z,42.805,6.029,13.2976,4.59975,2470.147,2020-7-13T02:51:13Z
2020-07-13T00:53:30Z,42.805,6.029,13.2976,4.59977,2470.156,2020-7-13T02:54:16Z
2020-07-13T00:56:33Z,42.805,6.029,13.2979,4.59978,2470.203,2020-7-13T02:57:19Z
2020-07-13T00:59:36Z,42.805,6.029,13.2976,4.59976,2470.171,2020-7-13T03:00:23Z
2020-07-13T01:02:39Z,42.805,6.029,13.2975,4.59976,2470.18,2020-7-13T03:03:26Z
2020-07-13T01:05:43Z,42.805,6.029,13.2974,4.59978,2470.171,2020-7-13T03:06:29Z
2020-07-13T01:08:46Z,42.805,6.029,13.2977,4.59976,2470.156,2020-7-13T03:09:33Z
2020-07-13T01:11:49Z,42.805,6.029,13.2971,4.59976,2470.18,2020-7-13T03:12:36Z
2020-07-13T01:14:52Z,42.805,6.029,13.2975,4.59976,2470.18,2020-7-13T03:15:39Z
2020-07-13T01:17:56Z,42.805,6.029,13.2975,4.59976,2470.156,2020-7-13T03:18:42Z
2020-07-13T01:20:59Z,42.805,6.029,13.2974,4.59976,2470.133,2020-7-13T03:21:45Z
2020-07-13T01:24:02Z,42.805,6.029,13.2974,4.59976,2470.171,2020-7-13T03:24:49Z
2020-07-13T01:27:05Z,42.805,6.029,13.2973,4.59976,2470.156,2020-7-13T03:27:52Z
2020-07-13T01:30:09Z,42.805,6.029,13.2976,4.59976,2470.194,2020-7-13T03:30:55Z
2020-07-13T01:33:12Z,42.805,6.029,13.2971,4.59976,2470.194,2020-7-13T03:33:58Z
2020-07-13T01:36:15Z,42.805,6.029,13.2974,4.59976,2470.147,2020-7-13T03:37:02Z
2020-07-13T01:39:18Z,42.805,6.029,13.2973,4.59976,2470.143,2020-7-13T03:40:05Z
2020-07-13T01:42:21Z,42.805,6.029,13.2975,4.59978,2470.194,2020-7-13T03:43:08Z
2020-07-13T01:45:25Z,42.805,6.029,13.2979,4.59976,2470.156,2020-7-13T03:46:11Z
2020-07-13T01:48:28Z,42.805,6.029,13.2973,4.59976,2470.143,2020-7-13T03:49:14Z
2020-07-13T01:51:31Z,42.805,6.029,13.2976,4.59977,2470.133,2020-7-13T03:52:18Z
2020-07-13T01:54:35Z,42.805,6.029,13.2974,4.59977,2470.18,2020-7-13T03:55:21Z
2020-07-13T01:57:38Z,42.805,6.029,13.2973,4.59978,2470.171,2020-7-13T03:58:24Z
2020-07-13T02:00:41Z,42.805,6.029,13.2976,4.59976,2470.171,2020-7-13T04:01:28Z
2020-07-13T02:03:44Z,42.805,6.029,13.2972,4.59976,2470.147,2020-7-13T04:04:31Z
2020-07-13T02:06:48Z,42.805,6.029,13.2971,4.59976,2470.147,2020-7-13T04:07:34Z
2020-07-13T02:09:51Z,42.805,6.029,13.2971,4.59976,2470.156,2020-7-13T04:10:38Z
2020-07-13T02:12:54Z,42.805,6.029,13.2975,4.59976,2470.133,2020-7-13T04:13:41Z
2020-07-13T02:15:57Z,42.805,6.029,13.2975,4.59976,2470.156,2020-7-13T04:16:44Z
2020-07-13T02:19:01Z,42.805,6.029,13.2978,4.59975,2470.124,2020-7-13T04:19:47Z
2020-07-13T02:22:04Z,42.805,6.029,13.2972,4.59976,2470.156,2020-7-13T04:22:50Z
2020-07-13T02:25:07Z,42.805,6.029,13.2974,4.59977,2470.124,2020-7-13T04:25:54Z
2020-07-13T02:28:10Z,42.805,6.029,13.2973,4.59976,2470.133,2020-7-13T04:28:57Z
2020-07-13T02:31:14Z,42.805,6.029,13.2976,4.59977,2470.156,2020-7-13T04:32:00Z
2020-07-13T02:34:17Z,42.805,6.029,13.2975,4.59976,2470.087,2020-7-13T04:35:04Z
2020-07-13T02:37:21Z,42.805,6.029,13.2973,4.59978,2470.11,2020-7-13T04:38:07Z
2020-07-13T02:40:24Z,42.805,6.029,13.2977,4.59978,2470.147,2020-7-13T04:41:10Z
2020-07-13T02:43:27Z,42.805,6.029,13.2974,4.59976,2470.147,2020-7-13T04:44:14Z
2020-07-13T02:46:30Z,42.805,6.029,13.2974,4.59976,2470.133,2020-7-13T04:47:17Z
2020-07-13T02:49:34Z,42.805,6.029,13.2976,4.59976,2470.11,2020-7-13T04:50:20Z
2020-07-13T02:52:37Z,42.805,6.029,13.2973,4.59978,2470.171,2020-7-13T04:53:24Z
2020-07-13T02:55:40Z,42.805,6.029,13.2973,4.59976,2470.124,2020-7-13T04:56:27Z
2020-07-13T02:58:44Z,42.805,6.029,13.2976,4.59977,2470.11,2020-7-13T04:59:31Z
2020-07-13T03:01:47Z,42.805,6.029,13.2977,4.59977,2470.133,2020-7-13T05:02:34Z
2020-07-13T03:04:50Z,42.805,6.029,13.2971,4.59976,2470.133,2020-7-13T05:05:37Z
2020-07-13T03:07:54Z,42.805,6.029,13.2975,4.59976,2470.147,2020-7-13T05:08:40Z
2020-07-13T03:10:57Z,42.805,6.029,13.2974,4.59976,2470.1,2020-7-13T05:11:43Z
2020-07-13T03:14:00Z,42.805,6.029,13.2972,4.59978,2470.11,2020-7-13T05:14:47Z
2020-07-13T03:17:03Z,42.805,6.029,13.2971,4.59976,2470.11,2020-7-13T05:17:50Z
2020-07-13T03:20:07Z,42.805,6.029,13.2974,4.59975,2470.147,2020-7-13T05:20:53Z
2020-07-13T03:23:10Z,42.805,6.029,13.2974,4.59977,2470.133,2020-7-13T05:23:56Z
2020-07-13T03:26:13Z,42.805,6.029,13.2975,4.59976,2470.124,2020-7-13T05:27:00Z
2020-07-13T03:29:16Z,42.805,6.029,13.2971,4.59976,2470.124,2020-7-13T05:30:03Z
2020-07-13T03:32:20Z,42.805,6.029,13.2975,4.59978,2470.11,2020-7-13T05:33:06Z
2020-07-13T03:35:23Z,42.805,6.029,13.2976,4.59976,2470.11,2020-7-13T05:36:09Z
2020-07-13T03:38:26Z,42.805,6.029,13.2974,4.59978,2470.063,2020-7-13T05:39:13Z
2020-07-13T03:41:30Z,42.805,6.029,13.2976,4.59976,2470.1,2020-7-13T05:42:16Z
2020-07-13T03:44:33Z,42.805,6.029,13.2975,4.59976,2470.124,2020-7-13T05:45:19Z
2020-07-13T03:47:36Z,42.805,6.029,13.2973,4.59976,2470.124,2020-7-13T05:48:23Z
2020-07-13T03:50:39Z,42.805,6.029,13.2976,4.59976,2470.11,2020-7-13T05:51:26Z
2020-07-13T03:53:42Z,42.805,6.029,13.2974,4.59976,2470.11,2020-7-13T05:54:29Z
2020-07-13T03:56:46Z,42.805,6.029,13.2972,4.59978,2470.1,2020-7-13T05:57:32Z
2020-07-13T03:59:49Z,42.805,6.029,13.2977,4.59977,2470.124,2020-7-13T06:00:35Z
2020-07-13T04:02:52Z,42.805,6.029,13.2976,4.59976,2470.063,2020-7-13T06:03:39Z
2020-07-13T04:05:55Z,42.805,6.029,13.2977,4.59975,2470.11,2020-7-13T06:06:42Z
2020-07-13T04:08:59Z,42.805,6.029,13.2975,4.59975,2470.1,2020-7-13T06:09:45Z
2020-07-13T04:12:02Z,42.805,6.029,13.2978,4.59976,2470.133,2020-7-13T06:12:48Z
2020-07-13T04:15:05Z,42.805,6.029,13.2976,4.59975,2470.11,2020-7-13T06:15:52Z
2020-07-13T04:18:08Z,42.805,6.029,13.2975,4.59975,2470.11,2020-7-13T06:18:55Z
2020-07-13T04:21:12Z,42.805,6.029,13.2976,4.59976,2470.087,2020-7-13T06:21:58Z
2020-07-13T04:24:15Z,42.805,6.029,13.2971,4.59976,2470.1,2020-7-13T06:25:02Z
2020-07-13T04:27:18Z,42.805,6.029,13.2974,4.59976,2470.133,2020-7-13T06:28:05Z
2020-07-13T04:30:22Z,42.805,6.029,13.2973,4.59975,2470.087,2020-7-13T06:31:08Z
2020-07-13T04:33:25Z,42.805,6.029,13.2976,4.59976,2470.124,2020-7-13T06:34:11Z
2020-07-13T04:36:28Z,42.805,6.029,13.2974,4.59976,2470.11,2020-7-13T06:37:15Z
2020-07-13T04:39:31Z,42.805,6.029,13.2972,4.59978,2470.1,2020-7-13T06:40:18Z
2020-07-13T04:42:35Z,42.805,6.029,13.2976,4.59976,2470.1,2020-7-13T06:43:21Z
2020-07-13T04:45:38Z,42.805,6.029,13.2976,4.59976,2470.087,2020-7-13T06:46:24Z
2020-07-13T04:48:41Z,42.805,6.029,13.2978,4.59976,2470.133,2020-7-13T06:49:28Z
2020-07-13T04:51:44Z,42.805,6.029,13.2977,4.59976,2470.073,2020-7-13T06:52:31Z
2020-07-13T04:54:48Z,42.805,6.029,13.2972,4.59975,2470.077,2020-7-13T06:55:34Z
2020-07-13T04:57:51Z,42.805,6.029,13.2974,4.59975,2470.124,2020-7-13T06:58:37Z
2020-07-13T05:00:54Z,42.805,6.029,13.2974,4.59975,2470.1,2020-7-13T07:01:41Z
2020-07-13T05:03:58Z,42.805,6.029,13.2976,4.59976,2470.087,2020-7-13T07:04:44Z
2020-07-13T05:07:01Z,42.805,6.029,13.2975,4.59977,2470.133,2020-7-13T07:07:47Z
2020-07-13T05:10:04Z,42.805,6.029,13.2972,4.59976,2470.087,2020-7-13T07:10:50Z
2020-07-13T05:13:07Z,42.805,6.029,13.2979,4.59976,2470.063,2020-7-13T07:13:54Z
2020-07-13T05:16:10Z,42.805,6.029,13.2977,4.59976,2470.087,2020-7-13T07:16:57Z
2020-07-13T05:19:14Z,42.805,6.029,13.2973,4.59976,2470.087,2020-7-13T07:20:00Z
2020-07-13T05:22:17Z,42.805,6.029,13.2974,4.59978,2470.087,2020-7-13T07:23:03Z
2020-07-13T05:25:20Z,42.805,6.029,13.2976,4.59976,2470.077,2020-7-13T07:26:07Z
2020-07-13T05:28:23Z,42.805,6.029,13.2972,4.59974,2470.04,2020-7-13T07:29:10Z
2020-07-13T05:31:27Z,42.805,6.029,13.2974,4.59976,2470.063,2020-7-13T07:32:13Z
2020-07-13T05:34:30Z,42.805,6.029,13.2976,4.59976,2470.087,2020-7-13T07:35:16Z
2020-07-13T05:37:33Z,42.805,6.029,13.2975,4.59976,2470.063,2020-7-13T07:38:20Z
2020-07-13T05:40:36Z,42.805,6.029,13.2976,4.59976,2470.077,2020-7-13T07:41:23Z
2020-07-13T05:43:40Z,42.805,6.029,13.2974,4.59976,2470.077,2020-7-13T07:44:26Z
2020-07-13T05:46:43Z,42.805,6.029,13.2974,4.59978,2470.11,2020-7-13T07:47:30Z
2020-07-13T05:49:46Z,42.805,6.029,13.2973,4.59976,2470.077,2020-7-13T07:50:33Z
2020-07-13T05:52:50Z,42.805,6.029,13.2976,4.59978,2470.017,2020-7-13T07:53:36Z
2020-07-13T05:55:53Z,42.805,6.029,13.2979,4.59976,2470.063,2020-7-13T07:56:39Z
2020-07-13T05:58:56Z,42.805,6.029,13.2970,4.59976,2470.04,2020-7-13T07:59:43Z
2020-07-13T06:01:59Z,42.805,6.029,13.2974,4.59977,2470.063,2020-7-13T08:02:46Z
2020-07-13T06:05:03Z,42.805,6.029,13.2973,4.59976,2470.063,2020-7-13T08:05:49Z
2020-07-13T06:08:06Z,42.805,6.029,13.2974,4.59978,2470.063,2020-7-13T08:08:52Z
2020-07-13T06:11:09Z,42.805,6.029,13.2976,4.59977,2470.077,2020-7-13T08:11:56Z
2020-07-13T06:14:12Z,42.805,6.029,13.2974,4.59976,2470.04,2020-7-13T08:14:59Z
2020-07-13T06:17:16Z,42.805,6.029,13.2976,4.59977,2470.04,2020-7-13T08:18:02Z
2020-07-13T06:20:19Z,42.805,6.029,13.2975,4.59976,2470.053,2020-7-13T08:21:05Z
2020-07-13T06:23:22Z,42.805,6.029,13.2976,4.59976,2470.077,2020-7-13T08:24:09Z
2020-07-13T06:26:26Z,42.805,6.029,13.2974,4.59976,2470.03,2020-7-13T08:27:12Z
2020-07-13T06:29:29Z,42.805,6.029,13.2974,4.59975,2470.063,2020-7-13T08:30:15Z
2020-07-13T06:32:32Z,42.805,6.029,13.2975,4.59976,2470.04,2020-7-13T08:33:19Z
2020-07-13T06:35:35Z,42.805,6.029,13.2974,4.59976,2470.077,2020-7-13T08:36:22Z
2020-07-13T06:38:39Z,42.805,6.029,13.2975,4.59976,2470.04,2020-7-13T08:39:25Z
2020-07-13T06:41:42Z,42.805,6.029,13.2975,4.59976,2470.053,2020-7-13T08:42:28Z
2020-07-13T06:44:45Z,42.805,6.029,13.2972,4.59975,2470.077,2020-7-13T08:45:32Z
2020-07-13T06:47:48Z,42.805,6.029,13.2976,4.59974,2470.087,2020-7-13T08:48:35Z
2020-07-13T06:50:52Z,42.805,6.029,13.2973,4.59976,2470.087,2020-7-13T08:51:38Z
2020-07-13T06:53:55Z,42.805,6.029,13.2975,4.59976,2470.04,2020-7-13T08:54:41Z
2020-07-13T06:56:58Z,42.805,6.029,13.2974,4.59976,2470.03,2020-7-13T08:57:45Z
2020-07-13T07:00:01Z,42.805,6.029,13.2970,4.59975,2470.063,2020-7-13T09:00:48Z
2020-07-13T07:03:05Z,42.805,6.029,13.2975,4.59976,2470.063,2020-7-13T09:03:51Z
2020-07-13T07:06:08Z,42.805,6.029,13.2974,4.59978,2470.017,2020-7-13T09:06:55Z
2020-07-13T07:09:11Z,42.805,6.029,13.2978,4.59978,2470.017,2020-7-13T09:09:58Z
2020-07-13T07:12:14Z,42.805,6.029,13.2973,4.59976,2470.077,2020-7-13T09:13:01Z
2020-07-13T07:15:18Z,42.805,6.029,13.2974,4.59976,2470.077,2020-7-13T09:16:04Z
2020-07-13T07:18:21Z,42.805,6.029,13.2974,4.59977,2470.063,2020-7-13T09:19:07Z
2020-07-13T07:21:24Z,42.805,6.029,13.2974,4.59978,2470.063,2020-7-13T09:22:11Z
2020-07-13T07:24:27Z,42.805,6.029,13.2974,4.59976,2470.053,2020-7-13T09:25:14Z
2020-07-13T07:27:31Z,42.805,6.029,13.2974,4.59978,2470.053,2020-7-13T09:28:17Z
2020-07-13T07:30:34Z,42.805,6.029,13.2971,4.59976,2470.063,2020-7-13T09:31:20Z
2020-07-13T07:33:37Z,42.805,6.029,13.2974,4.59976,2470.03,2020-7-13T09:34:24Z
2020-07-13T07:36:40Z,42.805,6.029,13.2971,4.59976,2470.063,2020-7-13T09:37:27Z
2020-07-13T07:39:43Z,42.805,6.029,13.2974,4.59978,2470.063,2020-7-13T09:40:30Z
2020-07-13T07:42:47Z,42.805,6.029,13.2971,4.59976,2470.053,2020-7-13T09:43:33Z
2020-07-13T07:45:50Z,42.805,6.029,13.2975,4.59976,2470.017,2020-7-13T09:46:37Z
2020-07-13T07:48:53Z,42.805,6.029,13.2974,4.59976,2470.063,2020-7-13T09:49:40Z
2020-07-13T07:51:57Z,42.805,6.029,13.2976,4.59976,2470.04,2020-7-13T09:52:43Z
2020-07-13T07:55:00Z,42.805,6.029,13.2974,4.59978,2470.053,2020-7-13T09:55:46Z
2020-07-13T07:58:03Z,42.805,6.029,13.2973,4.59975,2470.04,2020-7-13T09:58:50Z
2020-07-13T08:01:06Z,42.805,6.029,13.2974,4.59976,2470.026,2020-7-13T10:01:53Z
2020-07-13T08:04:10Z,42.805,6.029,13.2974,4.59975,2470.017,2020-7-13T10:04:56Z
2020-07-13T08:07:13Z,42.805,6.029,13.2974,4.59976,2470.063,2020-7-13T10:08:00Z
2020-07-13T08:10:16Z,42.805,6.029,13.2976,4.59976,2470.077,2020-7-13T10:11:03Z
2020-07-13T08:13:19Z,42.805,6.029,13.2978,4.59976,2470.063,2020-7-13T10:14:06Z
2020-07-13T08:16:23Z,42.805,6.029,13.2975,4.59976,2470.007,2020-7-13T10:17:09Z
2020-07-13T08:19:26Z,42.805,6.029,13.2974,4.59978,2470.03,2020-7-13T10:20:13Z
2020-07-13T08:22:29Z,42.805,6.029,13.2974,4.59976,2470.017,2020-7-13T10:23:16Z
2020-07-13T08:25:32Z,42.805,6.029,13.2975,4.59977,2470.053,2020-7-13T10:26:19Z
2020-07-13T08:28:36Z,42.805,6.029,13.2974,4.59976,2470.04,2020-7-13T10:29:22Z
2020-07-13T08:31:39Z,42.805,6.029,13.2977,4.59977,2470.063,2020-7-13T10:32:25Z
2020-07-13T08:34:42Z,42.805,6.029,13.2972,4.59978,2470.077,2020-7-13T10:35:29Z
2020-07-13T08:37:46Z,42.805,6.029,13.2975,4.59975,2470.04,2020-7-13T10:38:32Z
2020-07-13T08:40:49Z,42.805,6.029,13.2971,4.59976,2470.053,2020-7-13T10:41:36Z
2020-07-13T08:43:52Z,42.805,6.029,13.2975,4.59977,2470.017,2020-7-13T10:44:39Z
2020-07-13T08:46:55Z,42.805,6.029,13.2973,4.59976,2470.017,2020-7-13T10:47:42Z
2020-07-13T08:49:59Z,42.805,6.029,13.2975,4.59976,2470.063,2020-7-13T10:50:45Z
2020-07-13T08:53:02Z,42.805,6.029,13.2975,4.59976,2470.063,2020-7-13T10:53:49Z
2020-07-13T08:56:05Z,42.805,6.029,13.2975,4.59976,2470.053,2020-7-13T10:56:52Z
2020-07-13T08:59:09Z,42.805,6.029,13.2975,4.59979,2470.003,2020-7-13T10:59:55Z
2020-07-13T09:02:12Z,42.805,6.029,13.2974,4.59976,2470.087,2020-7-13T11:02:58Z
2020-07-13T09:05:15Z,42.805,6.029,13.2968,4.59976,2470.04,2020-7-13T11:06:02Z
2020-07-13T09:08:18Z,42.805,6.029,13.2974,4.59976,2470.017,2020-7-13T11:09:05Z
2020-07-13T09:11:22Z,42.805,6.029,13.2973,4.59976,2470.063,2020-7-13T11:12:08Z
2020-07-13T09:14:25Z,42.805,6.029,13.2972,4.59976,2470.053,2020-7-13T11:15:12Z
2020-07-13T09:17:28Z,42.805,6.029,13.2975,4.59977,2470.053,2020-7-13T11:18:15Z
2020-07-13T09:20:32Z,42.805,6.029,13.2976,4.59976,2470.053,2020-7-13T11:21:18Z
2020-07-13T09:23:35Z,42.805,6.029,13.2975,4.59976,2470.017,2020-7-13T11:24:21Z
2020-07-13T09:26:38Z,42.805,6.029,13.2975,4.59976,2470.04,2020-7-13T11:27:25Z
2020-07-13T09:29:41Z,42.805,6.029,13.2974,4.59976,2470.063,2020-7-13T11:30:28Z
2020-07-13T09:32:44Z,42.805,6.029,13.2975,4.59976,2470.077,2020-7-13T11:33:31Z
2020-07-13T09:35:48Z,42.805,6.029,13.2974,4.59978,2470.053,2020-7-13T11:36:34Z
2020-07-13T09:38:51Z,42.805,6.029,13.2975,4.59976,2470.063,2020-7-13T11:39:38Z
2020-07-13T09:41:54Z,42.805,6.029,13.2973,4.59977,2470.017,2020-7-13T11:42:41Z
2020-07-13T09:44:57Z,42.805,6.029,13.2974,4.59975,2470.063,2020-7-13T11:45:44Z
2020-07-13T09:48:01Z,42.805,6.029,13.2974,4.59976,2470.053,2020-7-13T11:48:47Z
2020-07-13T09:51:04Z,42.805,6.029,13.2972,4.59976,2470.03,2020-7-13T11:51:51Z
2020-07-13T09:54:07Z,42.805,6.029,13.2972,4.59976,2470.077,2020-7-13T11:54:54Z
2020-07-13T09:57:10Z,42.805,6.029,13.2974,4.59976,2470.017,2020-7-13T11:57:57Z
2020-07-13T10:00:14Z,42.805,6.029,13.2976,4.59976,2470.053,2020-7-13T12:01:00Z
2020-07-13T10:03:17Z,42.805,6.029,13.2977,4.59977,2470.063,2020-7-13T12:04:03Z
2020-07-13T10:06:20Z,42.805,6.029,13.2977,4.59976,2470.077,2020-7-13T12:07:07Z
2020-07-13T10:09:24Z,42.805,6.029,13.2974,4.59976,2470.063,2020-7-13T12:10:10Z
2020-07-13T10:12:27Z,42.805,6.029,13.2976,4.59976,2470.063,2020-7-13T12:13:13Z
2020-07-13T10:15:30Z,42.805,6.029,13.2976,4.59976,2470.1,2020-7-13T12:16:17Z
2020-07-13T10:18:33Z,42.805,6.029,13.2975,4.59977,2470.087,2020-7-13T12:19:20Z
2020-07-13T10:21:37Z,42.805,6.029,13.2973,4.59976,2470.1,2020-7-13T12:22:23Z
2020-07-13T10:24:40Z,42.805,6.029,13.2972,4.59977,2470.087,2020-7-13T12:25:26Z
2020-07-13T10:27:43Z,42.805,6.029,13.2974,4.59976,2470.063,2020-7-13T12:28:30Z
2020-07-13T10:30:46Z,42.805,6.029,13.2976,4.59976,2470.077,2020-7-13T12:31:33Z
2020-07-13T10:33:50Z,42.805,6.029,13.2973,4.59976,2470.077,2020-7-13T12:34:36Z
2020-07-13T10:36:53Z,42.805,6.029,13.2974,4.59976,2470.1,2020-7-13T12:37:39Z
2020-07-13T10:39:56Z,42.805,6.029,13.2975,4.59976,2470.087,2020-7-13T12:40:43Z
2020-07-13T10:42:59Z,42.805,6.029,13.2974,4.59975,2470.077,2020-7-13T12:43:46Z
2020-07-13T10:46:02Z,42.805,6.029,13.2968,4.59976,2470.077,2020-7-13T12:46:49Z
2020-07-13T10:49:06Z,42.805,6.029,13.2972,4.59978,2470.077,2020-7-13T12:49:52Z
2020-07-13T10:52:09Z,42.805,6.029,13.2971,4.59976,2470.087,2020-7-13T12:52:55Z
2020-07-13T10:55:12Z,42.805,6.029,13.2971,4.59978,2470.1,2020-7-13T12:55:59Z
2020-07-13T10:58:15Z,42.805,6.029,13.2974,4.59976,2470.087,2020-7-13T12:59:02Z
2020-07-13T11:01:19Z,42.805,6.029,13.2975,4.59976,2470.063,2020-7-13T13:02:05Z
2020-07-13T11:04:22Z,42.805,6.029,13.2975,4.59976,2470.063,2020-7-13T13:05:09Z
2020-07-13T11:07:25Z,42.805,6.029,13.2972,4.59976,2470.063,2020-7-13T13:08:12Z
2020-07-13T11:10:28Z,42.805,6.029,13.2974,4.59976,2470.087,2020-7-13T13:11:15Z
2020-07-13T11:13:32Z,42.805,6.029,13.2978,4.59976,2470.063,2020-7-13T13:14:18Z
2020-07-13T11:16:35Z,42.805,6.029,13.2976,4.59976,2470.077,2020-7-13T13:17:22Z
2020-07-13T11:19:38Z,42.805,6.029,13.2975,4.59976,2470.11,2020-7-13T13:20:25Z
2020-07-13T11:22:42Z,42.805,6.029,13.2973,4.59976,2470.087,2020-7-13T13:23:28Z
2020-07-13T11:25:45Z,42.805,6.029,13.2974,4.59976,2470.04,2020-7-13T13:26:32Z
2020-07-13T11:28:49Z,42.805,6.029,13.2974,4.59976,2470.11,2020-7-13T13:29:35Z
2020-07-13T11:31:52Z,42.805,6.029,13.2973,4.59976,2470.063,2020-7-13T13:32:38Z
2020-07-13T11:34:55Z,42.805,6.029,13.2973,4.59976,2470.087,2020-7-13T13:35:42Z
2020-07-13T11:37:58Z,42.805,6.029,13.2974,4.59976,2470.063,2020-7-13T13:38:45Z
2020-07-13T11:41:01Z,42.805,6.029,13.2970,4.59978,2470.077,2020-7-13T13:41:48Z
2020-07-13T11:44:05Z,42.805,6.029,13.2974,4.59977,2470.1,2020-7-13T13:44:51Z
2020-07-13T11:47:08Z,42.805,6.029,13.2974,4.59976,2470.077,2020-7-13T13:47:55Z
2020-07-13T11:50:11Z,42.805,6.029,13.2974,4.59976,2470.087,2020-7-13T13:50:58Z
2020-07-13T11:53:15Z,42.805,6.029,13.2974,4.59976,2470.087,2020-7-13T13:54:01Z
2020-07-13T11:56:18Z,42.805,6.029,13.2970,4.59976,2470.087,2020-7-13T13:57:04Z
2020-07-13T11:59:21Z,42.805,6.029,13.2975,4.59976,2470.11,2020-7-13T14:00:08Z
2020-07-13T12:02:24Z,42.805,6.029,13.2974,4.59976,2470.063,2020-7-13T14:03:11Z
2020-07-13T12:05:27Z,42.805,6.029,13.2974,4.59976,2470.087,2020-7-13T14:06:14Z
2020-07-13T12:08:31Z,42.805,6.029,13.2973,4.59976,2470.1,2020-7-13T14:09:17Z
2020-07-13T12:11:34Z,42.805,6.029,13.2972,4.59976,2470.1,2020-7-13T14:12:20Z
2020-07-13T12:14:37Z,42.805,6.029,13.2976,4.59976,2470.077,2020-7-13T14:15:24Z
2020-07-13T12:17:40Z,42.805,6.029,13.2974,4.59977,2470.1,2020-7-13T14:18:27Z
2020-07-13T12:20:44Z,42.805,6.029,13.2977,4.59976,2470.1,2020-7-13T14:21:30Z
2020-07-13T12:23:47Z,42.805,6.029,13.2974,4.59975,2470.11,2020-7-13T14:24:33Z
2020-07-13T12:26:50Z,42.805,6.029,13.2971,4.59978,2470.1,2020-7-13T14:27:37Z
2020-07-13T12:29:53Z,42.805,6.029,13.2974,4.59978,2470.087,2020-7-13T14:30:40Z
2020-07-13T12:32:57Z,42.805,6.029,13.2976,4.59976,2470.087,2020-7-13T14:33:43Z
2020-07-13T12:36:00Z,42.805,6.029,13.2979,4.59976,2470.11,2020-7-13T14:36:46Z
2020-07-13T12:39:03Z,42.805,6.029,13.2971,4.59976,2470.124,2020-7-13T14:39:50Z
2020-07-13T12:42:06Z,42.805,6.029,13.2972,4.59976,2470.087,2020-7-13T14:42:53Z
2020-07-13T12:45:10Z,42.805,6.029,13.2974,4.59976,2470.087,2020-7-13T14:45:56Z
2020-07-13T12:48:13Z,42.805,6.029,13.2975,4.59976,2470.124,2020-7-13T14:48:59Z
2020-07-13T12:51:16Z,42.805,6.029,13.2974,4.59976,2470.087,2020-7-13T14:52:03Z
2020-07-13T12:54:19Z,42.805,6.029,13.2976,4.59976,2470.063,2020-7-13T14:55:06Z
2020-07-13T12:57:22Z,42.805,6.029,13.2973,4.59976,2470.1,2020-7-13T14:58:09Z
2020-07-13T13:00:26Z,42.805,6.029,13.2974,4.59977,2470.1,2020-7-13T15:01:12Z
2020-07-13T13:03:29Z,42.805,6.029,13.2978,4.59976,2470.096,2020-7-13T15:04:16Z
2020-07-13T13:06:32Z,42.805,6.029,13.2977,4.59976,2470.11,2020-7-13T15:07:19Z
2020-07-13T13:09:35Z,42.805,6.029,13.2973,4.59976,2470.11,2020-7-13T15:10:22Z
2020-07-13T13:12:39Z,42.805,6.029,13.2970,4.59976,2470.087,2020-7-13T15:13:25Z
2020-07-13T13:15:42Z,42.805,6.029,13.2974,4.59975,2470.11,2020-7-13T15:16:28Z
2020-07-13T13:18:45Z,42.805,6.029,13.2973,4.59977,2470.063,2020-7-13T15:19:32Z
2020-07-13T13:21:48Z,42.805,6.029,13.2971,4.59976,2470.1,2020-7-13T15:22:35Z
2020-07-13T13:24:52Z,42.805,6.029,13.2975,4.59976,2470.11,2020-7-13T15:25:38Z
2020-07-13T13:27:55Z,42.805,6.029,13.2976,4.59975,2470.1,2020-7-13T15:28:41Z
2020-07-13T13:30:58Z,42.805,6.029,13.2975,4.59976,2470.087,2020-7-13T15:31:45Z
2020-07-13T13:34:01Z,42.805,6.029,13.2974,4.59975,2470.124,2020-7-13T15:34:48Z
2020-07-13T13:37:04Z,42.805,6.029,13.2974,4.59975,2470.087,2020-7-13T15:37:51Z
2020-07-13T13:40:08Z,42.805,6.029,13.2971,4.59976,2470.077,2020-7-13T15:40:54Z
2020-07-13T13:43:11Z,42.805,6.029,13.2971,4.59976,2470.11,2020-7-13T15:43:58Z
2020-07-13T13:46:14Z,42.805,6.029,13.2974,4.59976,2470.063,2020-7-13T15:47:01Z
2020-07-13T13:49:17Z,42.805,6.029,13.2971,4.59976,2470.087,2020-7-13T15:50:04Z
2020-07-13T13:52:21Z,42.805,6.029,13.2976,4.59976,2470.1,2020-7-13T15:53:07Z
2020-07-13T13:55:24Z,42.805,6.029,13.2977,4.59976,2470.124,2020-7-13T15:56:11Z
2020-07-13T13:58:27Z,42.805,6.029,13.2971,4.59976,2470.114,2020-7-13T15:59:14Z
2020-07-13T14:01:30Z,42.805,6.029,13.2975,4.59976,2470.087,2020-7-13T16:02:17Z
2020-07-13T14:04:34Z,42.805,6.029,13.2975,4.59976,2470.087,2020-7-13T16:05:20Z
2020-07-13T14:07:37Z,42.805,6.029,13.2971,4.59976,2470.11,2020-7-13T16:08:24Z
2020-07-13T14:10:40Z,42.805,6.029,13.2977,4.59976,2470.063,2020-7-13T16:11:27Z
2020-07-13T14:13:44Z,42.805,6.029,13.2974,4.59976,2470.063,2020-7-13T16:14:30Z
2020-07-13T14:16:47Z,42.805,6.029,13.2975,4.59976,2470.087,2020-7-13T16:17:33Z
2020-07-13T14:19:50Z,42.805,6.029,13.2975,4.59976,2470.087,2020-7-13T16:20:37Z
2020-07-13T14:22:54Z,42.805,6.029,13.2975,4.59978,2470.087,2020-7-13T16:23:40Z
2020-07-13T14:25:57Z,42.805,6.029,13.2976,4.59976,2470.087,2020-7-13T16:26:43Z
2020-07-13T14:29:00Z,42.805,6.029,13.2968,4.59976,2470.087,2020-7-13T16:29:47Z
2020-07-13T14:32:03Z,42.805,6.029,13.2974,4.59976,2470.124,2020-7-13T16:32:50Z
2020-07-13T14:35:07Z,42.805,6.029,13.2974,4.59978,2470.1,2020-7-13T16:35:53Z
2020-07-13T14:38:10Z,42.805,6.029,13.2974,4.59976,2470.087,2020-7-13T16:38:56Z
2020-07-13T14:41:13Z,42.805,6.029,13.2972,4.59976,2470.077,2020-7-13T16:42:00Z
2020-07-13T14:44:17Z,42.805,6.029,13.2976,4.59976,2470.087,2020-7-13T16:45:03Z
2020-07-13T14:47:20Z,42.805,6.029,13.2974,4.59976,2470.1,2020-7-13T16:48:06Z
2020-07-13T14:50:23Z,42.805,6.029,13.2974,4.59975,2470.063,2020-7-13T16:51:10Z
2020-07-13T14:53:26Z,42.805,6.029,13.2976,4.59976,2470.1,2020-7-13T16:54:13Z
2020-07-13T14:56:29Z,42.805,6.029,13.2974,4.59976,2470.1,2020-7-13T16:57:16Z
2020-07-13T14:59:33Z,42.805,6.029,13.2974,4.59976,2470.087,2020-7-13T17:00:19Z
2020-07-13T15:02:36Z,42.805,6.029,13.2974,4.59975,2470.077,2020-7-13T17:03:23Z
2020-07-13T15:05:39Z,42.805,6.029,13.2973,4.59976,2470.1,2020-7-13T17:06:26Z
2020-07-13T15:08:43Z,42.805,6.029,13.2975,4.59976,2470.087,2020-7-13T17:09:29Z
2020-07-13T15:11:46Z,42.805,6.029,13.2975,4.59976,2470.087,2020-7-13T17:12:33Z
2020-07-13T15:14:49Z,42.805,6.029,13.2973,4.59976,2470.077,2020-7-13T17:15:36Z